Location: Canazei
(46.4667°N, 11.7667°E)
Time: 02:27:26
(UTC+00:00)

Cosmos 1238 Rocket - Visible Passes

Search period start: 05 August 2021 00:00
Search period end: 15 August 2021 00:00
Orbit: 375 x 1019 km, 83.0° (Epoch: 04 August)

Date Brightness Start Highest point End Pass type
(mag) Time Alt. Az. Time Alt. Az. Time Alt. Az.
05 Aug 3.6 01:08:30 39° WNW 01:08:30 39° WNW 01:12:37 10° N visible
06 Aug 3.6 00:11:23 50° ENE 00:11:23 50° ENE 00:15:14 10° NNE visible
06 Aug 5.0 01:50:09 13° WNW 01:50:59 14° WNW 01:53:22 10° NNW visible
06 Aug 5.2 23:14:15 17° ENE 23:14:15 17° ENE 23:16:43 10° NE visible
07 Aug 3.7 00:53:01 42° WNW 00:53:01 42° WNW 00:57:11 10° N visible
07 Aug 3.8 23:55:53 48° NE 23:55:53 48° NE 23:59:47 10° NNE visible
08 Aug 5.1 01:34:40 15° WNW 01:35:19 15° WNW 01:38:06 10° NNW visible
08 Aug 5.2 22:58:44 17° ENE 22:58:44 17° ENE 23:01:19 10° NE visible
09 Aug 3.8 00:37:31 43° WNW 00:37:31 43° WNW 00:41:47 10° N visible
09 Aug 3.9 23:40:22 47° NE 23:40:22 47° NE 23:44:21 10° NNE visible
10 Aug 5.1 01:19:08 17° WNW 01:19:39 17° WNW 01:22:48 10° NNW visible
10 Aug 5.3 22:43:13 18° ENE 22:43:13 18° ENE 22:45:54 10° NE visible
11 Aug 3.9 00:21:59 45° NW 00:21:59 45° NW 00:26:22 10° N visible
11 Aug 4.0 23:24:50 46° NE 23:24:50 46° NE 23:28:54 10° NNE visible
12 Aug 5.1 01:03:36 18° WNW 01:03:59 18° WNW 01:07:30 10° NNW visible
12 Aug 5.3 22:27:40 18° ENE 22:27:40 18° ENE 22:30:29 10° NE visible
13 Aug 4.0 00:06:26 46° NW 00:06:26 46° NW 00:10:57 10° N visible
13 Aug 4.1 23:09:16 46° NE 23:09:16 46° NE 23:13:28 10° NNE visible
14 Aug 5.2 00:48:03 19° WNW 00:48:20 20° WNW 00:52:10 10° NNW visible
14 Aug 5.3 22:12:06 19° ENE 22:12:06 19° ENE 22:15:05 10° NE visible
14 Aug 4.1 23:50:52 48° NW 23:50:52 48° NW 23:55:31 10° N visible
